Wind_Speed
100 105 110 114 115 115 115 114 110 106 103 100 96 93 92 90 88 90 89 86 88 95 96 87 77 77 83 84 84 86 86 85 88 88 85 81 72 71 74 68 65 66 60 59 59 56 53 51 51 53 53 52 50 47 46 48 47 43 43 43 43 43 43 42 41 40 39 38 38 39 38 38 34 28 26 28 31 30 28 30 31 30 27 25 28 32
96 99 102 107 111 113 115 115 113 110 107 105 102 99 98 95 91 92 90 85 90 96 94 86 81 81 83 82 83 85 85 85 89 91 84 77 71 74 77 69 63 65 61 58 57 54 53 50 50 52 52 52 51 47 46 48 47 45 45 44 44 44 43 42 41 40 40 39 40 40 39 40 37 32 32 34 37 37 34 34 34 33 32 30 31 35
92 93 95 99 105 110 114 116 115 112 112 111 108 105 102 97 93 93 91 88 91 95 92 87 85 86 84 82 83 84 84 84 89 89 81 74 72 76 79 71 65 67 64 58 55 54 53 51 51 52 51 50 49 46 47 48 48 47 46 45 44 43 43 42 42 41 41 41 41 40 40 41 39 36 36 37 39 41 40 39 38 37 36 34 35 38
87 88 89 93 99 105 111 115 116 114 115 115 113 110 105 99 96 94 92 91 93 95 92 88 87 88 86 84 85 83 80 82 85 85 80 75 73 76 78 73 68 70 67 57 54 55 53 52 52 52 49 47 46 45 47 49 49 48 48 46 44 44 44 43 42 42 43 43 42 42 42 42 41 39 38 38 39 41 42 42 42 42 40 38 38 41
82 83 86 90 95 101 107 112 115 116 116 117 116 112 106 101 98 95 94 93 94 95 93 91 90 89 88 87 85 80 76 78 82 83 81 75 72 75 78 74 69 71 67 56 53 55 52 51 52 51 48 45 45 46 49 50 48 48 48 45 44 45 44 43 43 44 44 43 43 43 44 44 43 41 39 39 41 43 44 43 43 43 42 42 43 44
78 81 86 89 93 98 104 108 113 115 117 117 115 111 107 103 99 97 96 96 96 96 95 94 92 87 85 86 84 80 75 76 82 82 78 73 71 74 77 75 70 70 67 57 55 56 53 52 52 51 49 47 47 49 50 50 49 49 47 46 46 45 44 43 43 43 43 42 42 42 43 43 43 42 39 38 40 43 43 43 42 42 43 44 44 45
76 79 84 87 90 95 100 104 108 112 116 116 114 111 108 105 102 99 99 99 98 98 95 95 93 84 83 86 86 83 76 75 83 80 72 71 71 72 75 74 70 69 65 59 57 58 56 55 54 53 51 50 50 51 52 51 50 49 47 47 47 46 45 44 42 41 40 40 40 41 42 41 40 41 41 41 42 43 45 46 44 44 44 44 45 46
72 76 81 85 88 92 96 100 103 108 113 115 113 111 109 107 105 102 102 101 99 98 96 96 96 89 86 86 86 85 77 75 84 78 66 68 70 70 74 73 69 67 64 59 59 61 59 57 56 53 53 53 51 51 52 52 50 49 48 47 47 47 47 45 44 44 43 42 41 41 42 41 40 41 43 44 45 46 48 48 47 47 47 48 49 49
67 74 80 83 86 90 92 95 99 105 110 112 112 110 109 110 109 105 104 103 101 101 100 99 99 94 86 83 82 84 79 79 83 73 61 64 68 69 72 70 67 66 63 60 61 62 61 59 56 53 53 54 53 52 52 51 49 48 48 47 47 48 48 46 46 47 47 46 45 44 44 44 44 45 45 46 47 48 49 49 49 49 49 49 50 51
64 71 77 80 83 85 88 92 96 102 106 109 110 111 111 112 110 108 107 105 104 104 103 103 103 95 84 79 81 83 81 78 78 70 59 61 66 69 70 67 66 65 63 62 62 61 61 59 58 56 56 55 54 54 54 52 50 49 49 49 49 49 49 48 48 48 48 48 49 49 49 50 51 50 49 49 50 50 50 50 50 49 49 50 52 55
61 67 73 76 76 78 82 89 94 98 101 104 108 111 113 113 112 111 109 106 107 109 107 107 105 94 83 79 82 83 78 74 75 70 60 60 67 69 67 65 65 64 62 61 60 58 58 58 59 59 57 56 56 56 55 53 52 52 52 52 51 50 50 49 50 50 50 51 51 52 53 54 54 54 54 54 54 54 54 54 53 51 52 53 55 57
57 62 67 70 71 73 78 85 89 93 95 99 105 110 114 114 113 113 112 111 112 112 111 111 104 92 82 80 82 79 72 73 77 71 60 60 67 67 64 63 62 61 60 60 58 56 55 56 58 59 56 55 56 57 55 54 53 53 54 53 51 51 51 51 52 52 52 53 53 54 54 55 55 55 56 57 58 58 59 58 57 56 56 56 57 59
51 56 61 65 69 71 75 80 83 86 90 95 102 109 115 115 115 116 115 115 115 113 113 110 100 88 80 77 78 75 71 75 78 70 63 64 68 67 63 61 59 58 57 57 55 55 55 54 56 58 58 57 57 56 55 55 54 53 53 53 52 52 52 52 53 54 54 54 55 55 54 55 55 55 56 57 57 58 58 58 58 58 58 58 59 60
45 51 55 58 63 66 70 75 79 82 86 93 100 107 114 116 116 117 115 113 112 112 112 105 93 84 78 73 74 75 73 75 75 70 66 66 68 67 64 60 59 57 56 54 52 54 56 57 58 57 55 56 56 55 54 54 54 54 53 52 52 52 53 54 54 54 54 54 55 54 54 54 54 55 55 56 56 56 56 57 57 58 59 59 59 58
40 45 49 53 57 60 65 70 74 79 84 91 96 103 110 114 115 114 112 111 112 111 107 98 89 82 75 69 71 75 75 74 74 71 68 66 68 69 64 60 59 57 56 54 52 51 53 58 59 55 52 53 54 54 53 52 52 52 52 51 52 53 53 54 54 53 53 54 54 53 53 54 54 54 55 55 55 55 56 57 57 58 58 57 56 55
38 43 48 52 55 60 64 68 73 78 83 88 93 99 106 112 113 112 111 111 110 105 97 93 89 81 74 72 73 75 76 76 75 72 68 67 69 69 65 60 58 57 54 51 48 49 52 56 58 54 53 54 54 52 49 48 48 49 50 51 52 53 53 53 53 52 52 52 52 52 52 52 53 53 54 54 54 54 55 55 55 55 55 54 53 52
35 41 45 48 52 58 63 68 72 76 79 83 90 96 102 109 113 112 111 109 105 100 96 97 92 80 76 78 76 75 77 79 75 69 68 69 69 68 64 59 58 57 54 47 44 46 50 53 54 51 51 53 53 50 47 46 47 49 50 51 51 51 51 51 50 50 50 50 50 50 50 51 51 51 52 52 52 52 52 53 52 52 52 51 51 51
33 36 40 44 48 54 59 64 68 72 76 81 86 91 98 106 111 111 110 108 104 101 100 99 90 79 79 81 77 74 77 79 74 66 66 69 69 66 64 61 59 57 54 46 41 44 47 49 49 47 47 50 50 47 46 47 48 49 50 49 49 49 48 47 47 47 48 47 47 47 47 48 49 49 49 49 50 50 50 51 50 50 51 51 50 51
29 32 36 41 46 51 56 61 65 68 73 77 81 88 96 102 107 108 108 108 105 102 100 96 86 81 83 81 76 73 74 78 73 64 65 68 67 65 64 63 61 59 55 47 42 44 46 48 47 45 45 46 47 46 46 47 47 47 47 45 45 45 45 44 45 45 46 45 45 45 46 46 46 47 47 47 48 49 48 49 49 49 50 50 50 50
28 31 34 38 43 48 52 56 59 62 67 73 80 88 94 98 101 104 105 105 103 101 97 92 86 84 83 79 74 72 73 78 74 65 64 67 67 66 65 63 62 61 56 49 46 46 47 48 46 45 45 44 45 47 46 46 45 43 42 41 41 42 42 42 44 44 44 44 44 44 44 45 45 46 46 46 47 47 47 47 47 48 49 49 49 49
27 30 33 37 41 44 47 50 53 56 63 71 78 85 89 93 98 102 104 103 102 99 95 91 87 85 81 77 75 73 74 78 74 66 65 66 65 66 65 63 62 61 56 50 48 50 50 48 46 46 47 46 45 46 46 45 43 41 41 40 39 39 41 42 43 43 43 43 43 44 44 44 44 44 45 45 45 45 45 46 46 46 46 46 46 46
27 29 32 34 36 38 41 46 51 56 63 70 74 78 81 86 92 98 103 103 102 100 96 91 88 84 81 79 77 74 74 77 73 66 65 65 64 66 65 64 64 61 56 50 48 50 51 49 48 48 47 46 46 46 45 43 42 41 40 39 37 38 41 42 42 42 43 42 42 43 43 42 43 43 43 43 44 44 44 44 44 43 43 43 44 44
26 29 31 32 35 37 40 46 52 57 63 67 69 73 77 82 87 92 97 100 101 99 95 92 89 85 82 80 78 74 74 76 72 65 65 67 68 68 64 62 62 59 55 52 49 49 48 46 48 48 45 45 46 45 44 42 41 41 40 38 37 39 41 41 41 41 42 41 41 42 42 42 42 42 43 43 43 42 42 43 42 42 42 42 42 42
25 28 31 33 36 40 43 48 52 56 61 64 65 69 75 79 82 85 91 96 97 96 93 91 89 85 84 81 78 76 76 75 71 66 65 66 67 66 62 60 61 59 57 55 52 52 50 48 49 48 45 45 45 45 45 42 40 41 40 39 39 39 41 41 40 41 41 40 41 42 42 42 42 43 43 43 43 42 42 42 42 41 41 41 41 41
24 28 31 34 37 41 46 50 53 56 60 62 63 66 70 74 76 81 89 95 96 96 93 90 87 84 83 81 78 77 76 75 71 67 66 66 66 66 64 60 60 60 59 56 55 54 52 51 51 50 48 48 48 48 48 45 43 42 41 41 41 41 42 42 41 42 42 41 42 43 43 43 43 43 43 43 43 43 43 42 42 41 41 40 40 40
21 26 29 31 35 38 42 46 50 53 57 59 60 63 66 71 75 80 88 94 96 96 93 90 87 84 82 81 79 77 76 74 72 69 68 69 70 69 66 61 58 58 57 54 54 53 51 49 50 50 49 49 50 51 51 49 47 45 44 44 43 43 44 44 43 44 44 43 44 44 43 43 44 44 44 44 43 43 43 42 41 41 40 40 39 40
17 21 25 28 30 34 39 43 47 51 54 56 57 60 64 71 76 80 85 91 94 94 93 90 88 85 82 81 80 78 75 73 72 71 70 71 70 67 67 65 62 59 57 55 53 51 49 48 50 51 49 48 48 51 51 50 48 46 46 46 45 45 46 45 45 46 46 45 45 45 44 44 45 45 45 45 44 43 43 42 41 41 40 40 41 41
16 19 23 27 30 34 37 42 46 50 54 56 56 59 63 69 75 79 83 88 92 94 92 90 87 84 82 81 80 78 75 73 72 72 72 71 67 65 64 65 63 60 58 56 54 51 49 50 53 52 50 48 47 48 49 49 48 48 48 48 47 47 47 47 47 48 48 47 46 46 45 45 46 46 46 46 44 44 43 43 42 42 42 42 42 42
16 18 21 26 30 34 36 39 44 49 53 55 57 60 63 67 71 77 81 85 90 92 91 89 87 83 81 80 79 77 76 74 72 71 71 68 65 64 62 60 59 57 56 55 52 50 49 52 56 55 53 51 49 50 50 49 47 48 48 48 47 48 48 47 47 48 48 47 47 47 46 46 46 47 46 46 45 44 44 44 44 44 43 43 42 41
18 19 22 25 28 33 35 38 42 45 48 52 56 60 63 65 69 73 78 83 88 91 91 91 87 83 81 80 78 77 75 73 71 70 69 65 62 62 61 59 57 56 55 54 52 51 51 52 55 55 55 54 54 54 53 50 49 49 49 48 47 47 47 47 46 47 47 47 47 47 47 47 47 47 47 46 45 45 45 45 45 44 43 41 40 39
21 22 24 27 29 33 36 39 41 42 45 50 54 58 61 64 66 70 77 83 88 90 91 91 88 84 81 79 77 76 74 72 70 69 68 64 60 59 58 56 55 54 53 52 51 52 53 54 54 54 56 57 56 54 53 51 50 50 49 48 47 46 46 45 45 47 47 47 47 47 47 47 47 47 47 46 46 46 45 45 44 42 41 41 39 38
22 24 26 28 30 32 34 36 38 39 40 44 49 54 59 63 65 69 75 81 86 89 91 91 88 84 82 79 77 75 72 71 70 69 67 63 58 56 55 52 50 51 54 54 51 51 53 55 56 56 58 58 55 54 53 51 49 48 46 46 45 45 45 45 45 47 47 46 47 47 47 46 46 46 46 46 46 46 45 43 42 41 41 41 40 39
21 23 25 26 28 30 31 32 34 36 37 39 43 48 54 59 62 66 71 76 82 87 90 88 85 83 83 81 77 74 70 68 68 68 66 63 60 57 55 54 52 51 53 54 52 52 53 54 54 55 56 55 53 53 53 51 48 47 46 44 44 45 45 45 45 47 47 47 46 46 46 46 46 45 46 46 46 45 43 42 42 42 42 41 40 39
20 22 23 24 26 29 30 31 33 34 36 39 41 46 51 55 60 64 68 73 78 81 83 84 84 82 80 77 75 74 71 67 65 65 65 62 60 58 56 56 57 55 53 54 52 50 50 51 52 52 50 49 50 51 51 50 49 48 48 46 46 45 45 44 45 46 47 47 46 46 45 45 45 45 46 46 44 43 42 42 42 42 42 41 40 39
19 21 21 22 24 26 28 31 32 32 34 37 41 45 50 55 59 63 67 71 74 75 76 78 79 78 75 74 74 73 70 68 65 64 63 60 59 57 55 54 56 55 53 52 52 50 50 51 53 51 48 48 51 52 51 50 50 50 50 48 47 45 44 44 45 46 47 46 46 45 44 44 45 45 44 44 42 42 42 42 42 42 42 41 40 39
16 18 20 21 22 24 27 30 30 31 32 34 39 45 50 54 58 62 66 69 71 72 72 71 72 72 72 72 71 67 65 66 65 64 62 59 57 56 55 52 53 54 54 52 52 53 54 56 56 53 49 50 53 54 53 52 52 52 51 48 46 45 45 44 45 46 46 46 45 44 43 43 44 43 43 42 42 42 42 42 42 42 42 41 41 40
15 17 18 20 22 24 26 27 27 31 33 35 39 45 49 52 56 60 63 65 68 71 71 71 72 72 70 69 67 65 64 63 63 63 61 58 54 53 53 53 51 52 53 53 53 52 52 51 52 51 51 53 56 56 56 55 54 52 50 48 46 46 45 45 45 46 45 45 44 44 43 42 43 43 42 42 42 42 43 43 43 42 42 42 42 41
15 16 17 19 22 23 24 25 27 31 34 36 40 44 48 50 53 57 60 62 64 67 70 73 74 73 70 69 67 66 65 63 62 61 59 56 53 49 48 51 52 51 51 52 54 54 51 49 50 52 55 57 58 59 58 56 55 53 50 48 47 47 47 46 46 46 45 45 44 44 43 43 43 43 43 43 44 44 44 44 44 44 44 43 43 43
15 16 17 18 20 22 23 26 29 31 33 37 40 44 47 49 52 54 57 59 61 63 67 72 75 73 71 70 68 65 65 64 62 59 57 55 53 47 45 48 51 52 53 54 55 56 56 54 54 56 58 59 59 59 58 57 56 53 50 47 47 48 49 48 47 46 46 45 45 44 44 43 43 43 44 44 44 45 45 45 45 45 45 44 44 44
15 16 17 18 20 21 22 27 31 33 35 37 39 43 46 48 50 52 54 56 58 61 64 68 70 70 69 68 66 64 63 62 58 56 55 53 50 47 47 49 50 52 53 54 55 57 58 57 57 57 58 59 60 59 59 58 56 52 49 49 50 50 50 49 48 47 46 46 45 45 44 43 43 44 44 44 45 45 46 46 46 46 46 46 46 45
14 16 17 19 21 21 23 28 32 34 36 37 38 41 45 47 47 49 51 53 55 57 60 62 63 63 63 62 61 61 60 57 55 54 54 53 52 52 51 49 48 50 51 51 53 55 57 59 60 60 59 59 59 60 59 58 56 52 50 50 51 51 51 50 48 47 47 46 45 45 44 44 44 44 44 44 45 46 47 47 47 47 48 48 47 46
14 16 18 20 22 23 25 28 32 34 35 36 37 40 43 45 45 46 48 51 53 55 56 57 56 56 57 57 57 56 55 54 54 54 53 53 55 56 54 51 49 49 50 52 54 56 59 61 62 62 62 61 60 60 59 57 55 52 51 52 52 52 51 50 49 48 47 46 45 44 44 44 44 44 44 45 46 47 48 49 49 49 50 49 48 46
13 16 19 21 23 26 26 28 31 33 33 33 35 38 41 43 44 45 46 48 50 52 52 52 52 52 53 54 53 52 52 53 55 54 53 53 55 55 54 54 53 53 55 57 59 61 63 64 63 62 60 60 59 58 57 56 54 53 52 52 52 52 52 51 50 49 47 45 44 44 44 44 44 44 45 46 48 49 50 50 51 51 51 50 48 47
12 16 20 21 24 27 29 30 32 33 32 31 32 33 36 41 43 44 46 48 48 49 49 48 48 48 49 50 49 50 52 53 53 53 53 53 55 55 55 55 56 56 58 60 61 63 64 63 61 60 58 57 56 56 55 54 54 53 52 52 52 52 52 51 50 49 47 45 44 43 43 43 44 45 46 47 48 49 50 51 51 51 51 50 49 49
15 18 20 22 25 28 30 33 34 34 33 31 30 29 32 37 40 42 45 48 48 47 46 45 44 44 44 45 46 48 50 50 50 51 52 52 53 54 55 55 56 56 57 58 59 59 60 59 59 58 56 55 54 54 54 53 53 52 52 52 52 52 51 51 50 49 48 47 45 44 44 44 44 45 46 47 48 49 50 51 51 51 50 50 50 50
18 21 21 23 27 29 31 33 34 34 34 33 31 28 28 33 36 38 41 45 46 46 45 44 41 36 35 40 45 48 48 48 48 49 50 51 52 52 53 55 57 57 57 56 56 56 56 56 57 56 55 54 54 53 52 52 51 50 50 51 51 52 51 51 50 49 49 48 47 46 45 44 45 46 47 48 49 49 50 51 50 49 49 50 49 50
19 22 23 25 28 30 32 34 35 35 35 34 33 30 27 30 34 37 39 41 42 42 42 40 38 31 27 34 45 48 46 46 47 47 48 49 50 51 53 54 57 58 58 57 56 55 55 55 56 56 55 54 53 52 51 49 48 48 50 51 51 51 50 50 49 49 49 49 47 46 45 45 46 46 48 48 49 49 50 50 49 48 48 49 49 50
21 24 24 27 31 33 34 36 37 37 37 37 36 33 29 30 35 38 39 38 38 37 37 37 39 36 29 31 40 43 39 38 41 44 46 48 48 48 50 53 55 57 58 58 57 56 55 55 55 55 55 55 54 52 50 48 47 47 48 49 49 49 49 49 49 49 49 48 47 46 46 46 46 47 48 49 49 49 50 49 48 47 48 49 49 50
23 24 24 27 33 36 37 38 39 41 41 41 40 38 36 36 37 38 39 38 37 36 36 37 39 40 36 33 34 33 29 31 37 41 43 43 42 41 44 50 55 57 58 59 59 57 55 55 56 55 55 55 54 52 50 49 48 48 48 48 48 48 48 48 49 49 49 49 48 47 47 47 47 48 49 49 49 49 50 50 49 48 49 49 49 50
22 22 24 28 33 36 37 37 38 41 44 44 43 41 40 39 39 38 39 40 39 39 39 40 40 43 43 39 34 31 31 33 38 40 40 40 42 42 43 49 56 59 60 61 61 59 58 57 57 56 55 54 53 53 51 51 50 50 49 49 49 49 50 50 50 51 51 50 49 48 48 48 48 49 49 50 50 50 50 50 49 49 50 50 50 50
24 22 23 28 33 36 38 39 37 39 45 47 45 42 41 40 41 40 40 43 45 44 44 44 44 45 46 44 40 38 38 37 36 35 33 33 39 43 44 48 56 61 62 63 62 61 60 59 58 58 58 56 54 53 52 52 53 53 52 52 52 52 52 52 52 52 52 51 51 50 49 49 49 49 50 51 51 51 51 51 50 50 51 52 52 52
Wind_Direction
234 233 232 232 232 232 233 233 233 233 233 233 233 232 231 231 230 231 231 229 230 232 234 235 232 230 233 234 233 234 235 236 239 239 238 239 238 242 244 241 243 244 243 245 247 249 249 248 249 250 252 255 256 257 258 260 262 263 261 260 259 259 260 262 264 265 267 268 268 268 269 269 269 262 250 248 259 270 273 277 281 280 280 274 267 268
233 231 230 230 230 230 231 232 231 230 231 231 231 230 230 229 229 230 231 229 231 233 233 232 232 230 231 233 233 233 234 234 238 239 238 239 239 240 243 241 242 245 243 243 247 248 247 246 248 251 254 256 257 257 257 258 260 259 258 258 258 259 261 263 264 266 266 266 266 267 268 269 268 263 258 259 267 274 275 278 281 279 277 271 264 266
232 231 229 228 228 228 228 229 229 228 228 229 229 229 229 228 228 229 230 230 231 233 233 231 230 231 230 231 233 233 233 234 237 240 238 237 238 240 243 241 241 244 243 242 246 247 246 244 246 251 255 256 256 255 255 256 256 256 256 257 259 260 262 263 264 265 265 264 265 267 268 268 268 266 264 265 269 273 275 277 279 278 276 271 267 269
232 231 229 227 227 226 226 227 227 227 227 227 228 227 227 227 227 228 229 229 231 233 234 231 229 230 230 229 231 232 233 235 237 240 239 236 237 240 243 242 240 243 244 242 244 245 246 245 245 250 253 254 256 255 254 253 253 254 256 258 259 260 260 261 263 263 263 264 265 266 265 265 267 267 266 265 265 265 268 272 277 279 277 273 272 275
231 230 228 227 225 224 224 224 225 225 225 226 227 227 226 226 226 227 229 229 231 232 233 233 230 228 229 230 231 232 233 236 238 239 239 236 236 240 242 242 240 243 244 240 241 244 245 245 244 246 250 253 256 254 252 252 252 254 256 258 259 258 259 261 263 263 262 263 264 264 264 265 266 268 266 265 264 264 267 273 277 279 277 276 276 277
230 228 227 226 224 223 222 222 222 223 224 225 225 226 226 226 226 226 228 229 230 231 232 233 232 228 229 232 232 232 232 235 238 237 238 237 236 239 242 242 241 243 244 240 240 243 243 243 243 245 250 253 253 251 251 252 253 254 256 258 258 258 260 261 263 264 262 263 263 263 264 265 266 268 268 267 267 268 270 274 276 277 277 276 276 277
229 227 227 226 223 222 221 220 220 221 222 223 223 224 224 225 225 225 227 228 230 231 231 233 234 229 227 230 232 231 229 233 238 236 235 237 236 238 242 243 241 242 243 241 240 242 242 242 243 246 249 250 249 250 250 251 253 255 256 256 258 259 259 260 260 261 262 264 265 266 266 266 265 266 267 269 269 270 272 273 274 276 277 277 278 279
229 228 227 226 224 222 221 219 219 219 220 221 221 222 222 223 224 224 226 227 229 231 231 232 233 231 226 226 229 231 227 229 237 236 233 237 238 238 241 242 242 242 242 241 240 241 242 242 244 246 246 246 247 249 250 251 253 255 256 256 257 258 258 258 257 258 260 263 264 266 267 267 266 266 268 269 270 271 272 273 275 278 280 281 280 279
228 227 226 226 224 222 220 219 218 218 218 219 219 220 221 222 223 223 224 226 228 230 230 230 232 231 227 226 228 231 229 227 235 236 232 236 240 239 240 242 242 242 241 240 240 241 242 243 243 244 245 245 247 248 250 252 254 255 256 256 256 257 257 257 257 257 259 260 261 263 265 266 266 267 269 269 270 271 271 273 276 280 282 281 278 276
228 226 226 227 225 222 220 218 217 217 217 217 217 218 219 220 221 222 223 224 226 229 230 230 231 230 227 226 227 230 230 229 234 236 232 234 239 239 240 241 241 241 240 239 240 241 242 242 242 242 245 248 248 249 251 252 253 254 255 255 255 256 258 258 258 259 259 260 260 261 262 264 265 267 268 267 268 269 270 273 277 279 279 277 275 275
226 225 226 228 228 224 221 218 217 216 216 215 215 216 218 219 220 221 222 222 224 227 228 229 230 228 225 226 227 228 230 231 234 234 230 233 239 240 240 240 241 241 240 239 239 240 241 241 242 243 245 248 247 248 251 252 252 253 254 255 256 257 259 260 261 261 262 262 262 262 263 264 265 266 267 267 268 269 271 274 276 276 277 277 276 277
225 225 226 227 228 226 223 221 218 216 214 214 214 215 216 218 218 219 220 221 223 225 226 228 228 226 223 224 227 228 228 231 233 232 228 231 237 240 240 240 241 241 241 240 238 237 240 242 242 242 242 245 247 248 250 251 252 254 255 256 258 259 260 262 262 263 264 264 265 265 265 265 266 267 267 267 268 270 271 273 275 275 277 279 279 281
225 225 225 225 225 224 223 221 219 217 214 212 212 213 215 216 217 218 219 220 221 223 226 227 226 225 223 223 228 229 226 229 233 230 226 229 235 238 239 239 239 240 240 240 237 236 239 242 243 242 242 244 247 249 250 252 254 255 256 258 259 261 262 262 263 264 265 265 266 266 267 267 268 268 269 269 269 270 272 273 275 276 278 280 282 284
225 225 226 225 224 223 222 221 219 216 214 213 212 212 214 215 216 217 218 220 221 223 226 227 225 224 223 222 226 229 228 228 232 231 226 227 233 237 238 239 239 238 238 238 236 236 239 242 244 243 243 244 247 249 251 253 255 256 258 259 260 261 262 262 263 264 264 265 266 267 268 269 269 270 271 271 272 272 273 274 275 277 279 281 283 284
224 223 224 224 223 222 221 221 219 216 214 213 212 212 213 215 216 217 218 219 221 223 225 226 225 224 223 222 224 229 230 229 230 231 228 227 232 236 236 237 239 239 238 238 238 238 238 240 242 242 244 246 248 250 252 254 256 258 258 259 260 260 261 261 262 263 265 266 267 268 269 270 270 271 272 272 273 273 274 275 276 277 279 281 283 284
221 218 219 219 218 217 217 217 217 215 213 212 211 211 212 214 216 217 218 219 221 222 224 225 225 222 222 223 223 226 230 230 228 229 228 227 230 235 236 236 238 239 239 239 239 239 238 239 241 244 246 247 249 251 254 257 258 258 258 258 258 259 260 261 262 264 266 267 268 269 269 270 271 271 272 273 273 274 274 275 276 278 280 282 283 284
221 218 217 217 215 215 215 215 215 215 213 212 210 211 212 213 214 215 216 218 220 221 222 224 223 219 220 223 222 222 227 229 227 226 228 228 229 233 235 235 237 239 238 237 237 236 237 239 242 245 246 245 247 252 255 258 258 257 257 256 257 258 260 262 264 265 266 267 268 268 269 269 270 271 272 272 273 274 275 276 278 279 280 281 282 282
222 220 217 215 213 214 215 214 214 213 212 211 210 210 211 213 214 213 214 217 218 218 220 222 221 218 220 223 222 221 226 230 229 224 226 229 229 231 233 233 234 236 236 233 232 233 235 239 241 244 247 246 247 251 255 255 254 254 254 256 257 259 261 263 264 265 265 266 267 268 268 269 269 271 272 273 274 275 276 277 278 279 280 280 281 282
218 217 215 214 213 212 213 214 213 212 210 210 210 210 211 213 213 213 213 214 216 217 219 220 219 217 220 222 222 221 225 231 230 225 226 230 231 230 232 233 233 235 235 231 230 235 239 241 241 242 247 247 247 250 252 252 252 253 255 257 259 261 262 264 264 264 265 266 267 267 268 269 270 271 272 273 274 275 276 277 278 279 280 281 282 284
212 210 210 212 212 211 211 212 212 211 209 209 209 210 211 212 213 213 212 213 215 216 218 218 218 217 219 220 221 221 223 229 229 224 225 229 231 231 232 233 235 236 236 231 231 236 240 241 241 242 245 247 248 250 252 253 254 255 257 258 259 261 262 264 264 265 266 267 268 269 270 271 271 272 273 274 275 276 277 278 279 281 282 283 284 285
207 206 205 207 210 210 208 209 210 209 208 209 210 210 210 210 211 211 212 212 214 215 216 217 217 218 218 219 221 220 222 228 228 223 224 227 229 231 231 231 233 234 235 233 232 236 238 240 241 242 244 247 248 250 252 254 256 257 257 258 259 261 263 263 264 265 267 268 269 270 270 271 272 273 274 275 276 277 278 280 281 282 283 284 285 285
201 200 202 204 207 208 206 206 208 207 207 208 210 211 211 211 210 210 210 210 212 214 215 215 216 217 217 218 219 219 221 227 227 223 223 226 228 229 230 231 233 234 235 232 230 233 236 237 238 241 244 246 247 250 252 255 257 257 258 258 259 261 262 262 264 266 267 268 270 271 271 272 273 274 275 276 277 278 280 281 282 283 284 285 285 286
198 194 195 197 200 201 201 204 206 205 206 208 208 209 210 211 211 210 209 210 211 213 214 214 215 215 216 218 218 218 220 225 226 222 223 226 228 229 230 231 233 232 229 225 224 229 233 233 238 242 243 245 248 252 254 255 256 257 257 258 259 260 262 264 265 267 268 269 270 271 272 273 273 274 275 277 278 280 281 282 283 284 285 286 286 287
196 192 191 192 194 195 196 201 203 203 204 206 207 208 208 209 211 210 209 209 210 212 213 214 214 213 215 216 216 217 219 223 224 222 222 225 228 228 227 229 231 229 228 229 229 232 234 237 244 247 247 248 250 253 254 255 256 258 259 259 260 261 263 265 266 268 268 270 271 271 272 273 274 275 276 278 279 281 282 283 285 286 286 287 287 287
192 190 190 190 191 193 195 198 199 200 202 203 205 206 206 206 208 209 209 208 209 211 212 214 215 214 215 216 215 216 219 221 222 221 221 224 227 227 226 228 231 229 231 234 234 235 238 241 247 251 251 252 251 253 256 256 257 258 260 261 262 263 264 266 267 268 269 270 271 272 273 274 275 276 277 278 280 281 282 284 285 286 286 287 287 287
192 190 189 190 191 193 196 199 198 198 200 202 202 204 204 203 204 207 209 207 207 209 210 212 214 215 216 217 216 216 217 219 221 221 221 223 226 228 227 227 230 229 230 235 236 237 239 241 246 251 251 251 252 254 256 257 258 259 261 262 264 265 266 267 268 268 269 270 271 272 274 275 276 277 277 278 279 281 282 283 284 285 285 285 285 285
186 188 187 187 189 192 194 198 197 197 199 200 201 201 203 203 202 204 207 207 207 208 210 211 212 213 215 217 217 217 217 218 220 221 222 223 226 228 228 229 230 231 232 234 236 237 238 241 245 249 250 252 253 253 254 256 258 260 262 263 265 266 267 267 268 269 269 271 272 273 275 276 276 276 277 278 279 280 281 283 283 283 283 283 283 284
175 182 184 183 186 190 193 196 196 196 197 198 198 199 202 204 203 202 204 206 206 207 210 211 211 212 214 216 217 217 217 218 219 220 222 224 225 227 228 230 232 233 234 235 237 238 239 241 243 246 251 254 253 253 256 258 260 262 263 264 265 266 267 268 269 270 271 272 274 274 275 275 275 275 276 278 279 280 281 281 281 281 282 283 285 286
162 172 180 183 184 187 191 195 196 196 197 197 197 197 199 204 205 203 202 203 205 207 209 211 211 211 214 216 217 218 218 218 219 221 223 225 226 228 230 232 234 235 236 237 238 239 239 240 241 245 250 251 252 256 261 262 263 264 265 265 266 267 268 269 270 271 273 273 274 274 275 275 274 275 276 278 279 279 280 280 281 282 284 286 287 289
154 165 173 179 183 185 188 194 198 199 197 196 197 197 197 201 205 205 201 201 204 206 208 210 210 210 213 215 217 218 219 219 220 222 224 225 226 229 231 233 235 236 238 239 238 236 237 238 241 243 246 249 253 259 262 263 264 265 266 267 268 268 269 271 272 272 273 273 273 274 274 274 274 275 276 277 278 278 279 280 283 285 286 287 287 288
153 162 168 174 180 184 187 192 197 199 198 197 198 199 198 198 202 205 202 200 202 204 208 210 209 208 211 214 216 217 219 220 220 222 224 224 224 227 229 231 234 234 235 237 238 236 236 238 241 243 245 249 255 260 262 263 264 266 267 267 268 269 270 271 272 272 272 273 273 273 273 273 274 275 276 277 277 277 279 282 284 285 285 285 286 286
155 161 167 172 179 185 188 190 194 197 199 201 201 201 200 198 198 202 203 202 201 203 207 210 209 209 210 212 214 216 218 220 220 222 224 224 223 225 226 226 230 233 233 234 236 236 237 240 242 244 247 250 256 260 262 262 264 266 268 268 268 269 270 271 271 271 271 272 272 272 273 273 274 275 275 275 276 278 281 283 283 283 283 283 284 286
157 163 168 172 178 184 188 190 193 195 198 202 205 204 203 200 197 199 203 203 202 204 207 209 210 211 211 212 213 215 217 219 221 223 224 224 224 225 225 222 224 228 231 232 235 238 240 242 244 246 249 251 255 258 260 261 263 266 267 268 268 269 270 270 271 271 271 271 271 272 272 273 274 274 274 275 277 280 281 281 281 280 281 282 284 286
160 165 168 172 179 185 188 190 193 195 196 198 201 203 203 201 198 197 200 203 203 206 208 210 211 212 213 214 215 215 216 218 220 223 225 225 225 226 227 225 225 228 231 233 235 237 239 242 243 245 249 250 251 254 257 260 262 265 266 268 269 270 270 271 271 270 271 271 271 272 272 273 273 273 274 276 278 279 279 279 279 279 281 282 284 285
163 166 168 174 182 186 188 191 191 191 193 195 197 199 199 199 198 196 198 201 202 205 209 212 213 214 215 216 217 217 218 219 221 223 225 226 226 227 228 229 229 230 231 232 231 232 236 240 242 244 249 249 248 251 255 258 262 265 267 269 270 270 270 270 270 270 271 271 272 273 273 273 274 274 275 276 277 277 277 277 278 279 280 282 284 285
166 170 171 177 186 188 189 191 188 184 187 192 195 196 197 197 197 196 196 198 201 203 206 210 214 215 217 219 220 220 221 223 224 225 226 227 228 229 229 231 232 231 230 230 231 234 238 240 241 244 246 246 246 249 253 258 263 265 267 268 269 269 270 270 270 270 272 273 274 275 275 275 275 275 275 275 274 275 275 275 277 278 280 281 283 284
168 174 176 180 189 191 189 189 186 182 184 188 190 193 195 195 196 196 195 197 200 202 204 207 210 213 215 218 220 220 221 223 224 226 227 227 228 230 231 231 232 232 232 233 233 234 236 238 239 240 241 242 246 249 253 258 262 264 265 267 268 269 269 269 270 271 273 275 276 277 277 276 274 274 273 272 272 272 272 274 276 277 279 280 281 282
167 175 178 182 190 192 187 184 183 182 184 185 187 190 193 192 193 195 195 196 199 203 206 208 209 210 213 215 217 219 220 221 223 225 226 227 227 228 230 231 231 231 232 232 231 232 235 238 239 239 240 243 248 251 254 258 261 262 264 266 267 267 267 268 269 271 273 275 276 277 278 276 274 272 271 270 270 271 272 273 274 276 278 279 280 281
168 174 175 180 187 189 184 180 179 179 182 184 185 187 189 190 191 194 194 196 199 202 207 210 211 211 213 214 216 218 220 222 223 225 226 226 225 227 232 232 230 230 231 232 233 235 238 239 240 241 243 245 248 251 255 258 260 262 264 265 264 265 266 267 269 271 274 276 277 278 278 276 274 272 271 270 270 271 271 272 274 275 277 278 279 280
169 172 172 175 182 186 181 177 176 176 178 183 185 186 187 189 191 193 193 196 200 204 208 212 213 213 215 217 218 220 222 224 226 227 228 227 225 225 229 231 230 230 231 233 236 237 238 240 241 242 244 246 248 252 255 258 260 261 262 262 262 264 266 268 270 273 275 276 277 278 276 275 274 273 271 271 271 271 272 273 274 275 275 276 278 280
165 169 172 175 178 180 178 175 174 175 177 180 183 186 188 189 190 193 195 197 201 206 210 212 213 214 217 219 220 222 224 225 226 228 229 228 224 223 225 227 230 231 230 232 236 236 236 237 238 239 242 247 250 253 255 256 258 260 261 261 262 263 266 269 271 273 275 277 278 278 276 275 274 273 272 272 271 271 271 272 273 274 275 277 279 281
166 169 171 174 175 175 177 176 175 176 178 180 182 186 189 190 190 193 196 200 203 207 210 213 213 215 218 220 221 223 224 226 226 227 228 228 226 226 225 226 230 231 229 230 232 233 233 235 238 241 245 249 251 252 254 256 258 259 260 260 261 264 266 269 271 274 276 278 278 277 276 275 275 274 273 272 272 272 272 273 274 275 277 278 280 281
163 173 174 175 175 174 175 175 174 174 176 179 183 189 191 190 191 193 198 202 206 208 211 213 214 215 218 220 222 223 224 226 226 227 228 228 228 228 227 227 228 230 230 229 231 233 235 238 241 244 247 249 251 252 254 256 257 258 258 260 261 264 266 269 271 274 276 278 278 277 276 275 274 274 273 273 273 274 275 276 276 277 279 280 281 280
164 178 178 178 177 175 173 173 174 174 174 176 184 192 195 193 194 197 199 203 207 209 211 214 216 216 218 221 223 224 225 226 227 228 229 230 230 230 230 230 231 233 233 234 235 237 239 242 244 247 249 251 252 253 254 255 256 257 259 260 262 264 266 269 272 274 276 277 277 277 276 275 274 274 274 274 274 275 276 277 278 279 281 282 282 281
171 177 178 182 181 178 175 175 174 173 173 176 182 191 196 196 198 201 203 204 207 209 211 213 216 219 222 224 226 228 228 228 229 229 230 231 232 232 232 233 235 237 238 239 239 240 242 244 246 248 250 251 252 253 254 255 257 259 260 261 262 264 266 269 271 273 275 276 277 277 277 276 275 274 274 275 275 276 277 278 279 281 282 283 283 282
172 174 177 182 183 180 178 177 175 172 173 177 180 186 194 200 202 206 207 207 208 208 210 212 214 217 226 231 232 232 232 231 231 232 232 233 234 235 235 235 236 238 240 241 242 243 244 245 246 247 249 250 251 252 254 256 258 260 260 260 261 263 265 267 269 271 273 276 277 278 278 278 277 276 276 276 277 278 278 279 281 282 283 283 283 283
172 175 175 179 183 182 180 178 177 174 174 178 180 183 191 202 208 210 210 209 208 208 209 210 207 207 221 235 235 233 233 233 234 235 236 236 237 239 239 239 240 241 242 243 243 244 244 245 247 248 249 250 251 252 254 256 258 259 259 260 260 262 263 265 267 270 273 275 277 278 278 278 277 277 277 277 278 279 280 281 282 283 283 282 282 281
174 175 175 178 182 182 181 181 180 177 176 180 184 185 188 197 207 211 211 209 207 205 205 205 200 196 207 230 236 233 234 240 242 242 241 240 242 244 247 247 246 245 245 245 244 244 245 246 247 248 248 249 250 251 253 255 257 257 258 258 260 261 262 264 266 269 272 274 276 277 277 277 277 277 277 278 279 280 281 282 284 284 283 282 281 280
175 174 176 182 184 183 183 184 183 181 180 183 187 190 193 197 203 209 209 206 203 202 202 202 199 195 201 219 227 223 225 238 244 243 241 241 244 248 253 256 254 250 248 247 245 244 244 245 246 247 248 249 250 251 252 253 254 255 256 258 260 261 262 264 266 269 272 274 275 277 277 277 277 277 277 278 280 281 282 284 285 285 284 283 282 281
173 173 180 185 185 185 186 186 187 187 186 186 188 193 198 201 204 206 206 201 199 200 201 203 204 204 207 216 218 208 205 217 228 234 238 241 242 244 249 257 259 256 252 250 248 245 244 245 245 246 248 249 250 250 250 251 252 254 257 260 262 263 264 265 268 270 272 273 275 276 277 277 277 278 278 279 280 282 283 284 286 286 286 285 284 283
177 182 188 188 187 187 186 185 188 193 193 191 191 194 198 202 205 207 206 202 199 200 201 203 206 209 212 215 213 207 205 211 222 233 239 240 240 240 240 247 256 259 256 252 250 247 244 244 245 245 246 248 249 250 250 251 253 256 259 261 263 264 265 267 268 269 271 272 274 276 277 278 278 278 279 280 281 283 284 285 286 287 287 287 286 285
Height
10437 10446 10456 10468 10483 10496 10509 10520 10535 10551 10561 10568 10576 10584 10588 10594 10602 10603 10608 10619 10620 10613 10616 10636 10658 10662 10654 10657 10663 10664 10671 10676 10674 10683 10692 10700 10715 10712 10709 10721 10724 10726 10735 10736 10738 10745 10751 10754 10754 10752 10753 10757 10763 10767 10769 10768 10769 10772 10773 10776 10776 10776 10777 10779 10781 10782 10783 10784 10783 10782 10783 10784 10787 10789 10789 10788 10786 10784 10782 10782 10782 10782 10782 10782 10780 10778
10421 10429 10443 10457 10470 10483 10495 10505 10519 10536 10545 10550 10558 10566 10571 10579 10590 10595 10601 10612 10611 10605 10616 10635 10646 10648 10646 10649 10654 10656 10662 10669 10667 10674 10689 10701 10709 10704 10701 10715 10721 10721 10729 10733 10736 10741 10744 10748 10748 10747 10749 10753 10759 10764 10765 10764 10764 10766 10768 10771 10772 10773 10774 10776 10777 10779 10780 10779 10778 10778 10779 10780 10781 10783 10783 10783 10783 10781 10779 10779 10779 10779 10779 10778 10776 10774
10410 10419 10434 10447 10457 10468 10479 10489 10503 10519 10528 10533 10541 10549 10558 10570 10581 10586 10593 10602 10601 10598 10610 10627 10634 10635 10640 10643 10644 10647 10655 10662 10662 10669 10687 10698 10699 10697 10697 10710 10718 10714 10721 10732 10734 10736 10739 10742 10744 10743 10746 10750 10755 10760 10760 10759 10758 10760 10764 10766 10768 10770 10771 10772 10774 10774 10774 10774 10774 10775 10775 10775 10776 10776 10777 10777 10778 10777 10776 10776 10775 10775 10775 10774 10772 10770
10402 10414 10427 10436 10444 10454 10464 10475 10488 10503 10511 10516 10524 10533 10546 10561 10571 10577 10586 10593 10592 10592 10604 10617 10623 10625 10630 10633 10633 10641 10652 10659 10661 10666 10681 10690 10691 10692 10693 10703 10712 10708 10717 10731 10731 10730 10734 10737 10739 10740 10743 10747 10751 10754 10753 10751 10753 10757 10760 10763 10766 10766 10766 10768 10769 10769 10769 10769 10770 10770 10770 10770 10770 10771 10771 10772 10773 10772 10772 10772 10771 10771 10771 10770 10769 10768
10395 10407 10416 10422 10430 10438 10447 10458 10470 10485 10495 10501 10511 10524 10540 10554 10563 10572 10579 10584 10585 10587 10596 10605 10610 10616 10622 10625 10631 10642 10653 10656 10657 10661 10672 10684 10688 10687 10687 10697 10706 10704 10713 10728 10726 10726 10730 10731 10734 10737 10740 10744 10747 10748 10746 10746 10750 10753 10756 10760 10761 10761 10762 10764 10764 10764 10764 10764 10765 10765 10765 10765 10765 10766 10767 10767 10767 10766 10767 10767 10766 10766 10766 10766 10765 10764
10388 10397 10400 10407 10416 10422 10431 10442 10455 10470 10481 10490 10503 10519 10535 10547 10556 10566 10570 10574 10576 10577 10587 10591 10596 10612 10621 10623 10630 10640 10649 10650 10648 10654 10667 10678 10683 10682 10682 10691 10699 10700 10710 10723 10722 10721 10724 10726 10729 10733 10736 10740 10741 10740 10740 10742 10746 10749 10753 10755 10755 10756 10759 10760 10760 10760 10760 10760 10760 10760 10760 10761 10762 10762 10763 10763 10762 10761 10762 10761 10761 10761 10761 10760 10760 10759
10380 10386 10389 10396 10405 10411 10419 10431 10444 10458 10468 10478 10494 10511 10527 10539 10547 10556 10560 10563 10566 10570 10582 10585 10589 10609 10618 10617 10622 10630 10642 10644 10637 10649 10666 10672 10676 10679 10678 10685 10693 10697 10707 10716 10717 10717 10719 10721 10724 10728 10732 10734 10735 10734 10735 10738 10741 10745 10749 10750 10751 10753 10754 10755 10756 10756 10756 10756 10756 10756 10756 10757 10758 10758 10758 10758 10757 10757 10756 10755 10756 10756 10755 10755 10755 10754
10373 10378 10380 10385 10393 10400 10409 10421 10434 10446 10456 10468 10486 10502 10518 10528 10535 10545 10551 10554 10559 10565 10574 10576 10580 10596 10604 10609 10616 10622 10637 10639 10628 10646 10668 10667 10671 10676 10674 10679 10688 10693 10703 10710 10711 10711 10713 10716 10720 10724 10726 10728 10729 10731 10732 10734 10738 10742 10744 10745 10747 10748 10748 10750 10751 10751 10752 10752 10752 10752 10752 10753 10753 10753 10753 10753 10752 10752 10751 10750 10750 10750 10750 10750 10749 10749
10365 10367 10370 10375 10382 10390 10400 10413 10425 10434 10444 10460 10479 10494 10508 10516 10523 10535 10541 10546 10553 10555 10560 10565 10568 10581 10595 10608 10616 10618 10629 10632 10627 10648 10669 10665 10666 10670 10670 10676 10683 10688 10698 10703 10703 10705 10708 10712 10716 10719 10720 10722 10725 10727 10728 10731 10734 10737 10739 10741 10742 10742 10743 10745 10746 10747 10747 10748 10748 10749 10748 10749 10748 10748 10748 10748 10748 10747 10746 10746 10746 10745 10745 10745 10744 10743
10354 10358 10361 10365 10371 10382 10395 10407 10415 10422 10434 10452 10470 10484 10494 10501 10512 10523 10529 10537 10543 10542 10548 10553 10556 10572 10593 10607 10613 10612 10621 10631 10635 10650 10664 10662 10660 10662 10665 10672 10677 10682 10691 10695 10697 10700 10702 10706 10710 10713 10714 10718 10721 10723 10724 10727 10730 10732 10734 10735 10736 10737 10738 10740 10741 10742 10742 10743 10744 10744 10744 10744 10743 10744 10744 10743 10743 10742 10742 10742 10742 10741 10740 10739 10738 10737
10345 10350 10354 10359 10367 10380 10391 10397 10403 10413 10428 10446 10460 10472 10481 10490 10502 10510 10517 10528 10529 10528 10536 10540 10546 10569 10592 10602 10604 10608 10622 10635 10636 10645 10658 10660 10655 10656 10662 10668 10671 10676 10684 10689 10693 10696 10698 10701 10705 10707 10710 10714 10716 10718 10720 10722 10724 10727 10728 10729 10731 10733 10734 10735 10735 10736 10737 10738 10739 10739 10739 10739 10738 10739 10739 10738 10737 10737 10738 10737 10737 10736 10734 10734 10733 10731
10339 10344 10350 10358 10366 10377 10385 10390 10397 10408 10422 10437 10449 10461 10469 10479 10490 10497 10505 10513 10512 10515 10524 10529 10542 10566 10587 10597 10599 10609 10628 10631 10627 10639 10655 10655 10649 10652 10659 10663 10666 10671 10677 10683 10689 10693 10694 10696 10699 10701 10705 10709 10710 10712 10715 10717 10719 10722 10723 10725 10727 10728 10729 10729 10730 10731 10732 10733 10733 10733 10733 10733 10733 10733 10733 10732 10732 10732 10732 10732 10731 10731 10729 10728 10726 10726
10337 10341 10346 10353 10360 10368 10377 10385 10395 10405 10417 10428 10439 10449 10456 10466 10477 10483 10490 10496 10500 10510 10516 10524 10544 10566 10583 10596 10601 10611 10624 10621 10620 10636 10649 10647 10644 10647 10653 10658 10662 10667 10671 10678 10686 10690 10690 10692 10694 10695 10700 10704 10705 10707 10710 10712 10715 10717 10719 10721 10723 10724 10724 10724 10724 10725 10727 10726 10726 10727 10727 10727 10727 10727 10727 10726 10726 10727 10727 10726 10726 10725 10724 10722 10721 10720
10334 10337 10343 10349 10355 10362 10371 10380 10390 10401 10412 10420 10428 10437 10445 10454 10463 10471 10482 10492 10501 10509 10513 10528 10550 10566 10581 10597 10602 10606 10614 10616 10619 10631 10640 10642 10641 10642 10649 10653 10657 10662 10666 10673 10682 10685 10686 10686 10686 10689 10695 10699 10700 10702 10704 10707 10710 10713 10715 10717 10718 10718 10718 10718 10719 10720 10721 10720 10720 10721 10722 10722 10722 10721 10721 10720 10721 10721 10721 10721 10720 10719 10719 10717 10716 10715
10329 10335 10340 10346 10352 10360 10369 10377 10387 10397 10405 10413 10423 10432 10441 10449 10459 10470 10481 10490 10497 10503 10517 10536 10552 10565 10583 10598 10603 10603 10608 10613 10618 10624 10633 10638 10636 10637 10644 10649 10652 10657 10662 10669 10678 10681 10681 10679 10679 10685 10692 10694 10695 10697 10699 10703 10706 10708 10710 10711 10712 10712 10712 10712 10713 10715 10715 10715 10715 10717 10717 10716 10716 10716 10715 10715 10715 10715 10715 10714 10714 10714 10713 10712 10711 10710
10325 10330 10333 10338 10345 10353 10360 10369 10379 10387 10394 10406 10418 10426 10434 10444 10456 10469 10479 10487 10495 10511 10531 10539 10546 10565 10584 10592 10595 10597 10599 10603 10610 10618 10626 10631 10632 10634 10641 10646 10649 10653 10657 10666 10674 10677 10676 10674 10675 10682 10688 10689 10691 10692 10695 10699 10701 10703 10704 10705 10705 10706 10706 10707 10709 10710 10711 10710 10711 10712 10712 10711 10711 10711 10710 10710 10709 10710 10709 10708 10709 10708 10707 10706 10706 10705
10322 10325 10328 10333 10340 10347 10353 10361 10369 10379 10391 10402 10410 10419 10431 10440 10448 10461 10475 10485 10498 10515 10526 10524 10536 10563 10576 10577 10583 10591 10591 10592 10602 10616 10622 10624 10627 10631 10637 10643 10646 10648 10653 10663 10670 10671 10671 10670 10673 10679 10682 10684 10686 10689 10692 10694 10696 10697 10698 10699 10700 10700 10701 10703 10704 10705 10705 10706 10707 10707 10707 10706 10706 10705 10705 10705 10704 10704 10704 10703 10703 10703 10702 10701 10701 10700
10319 10323 10327 10333 10338 10344 10350 10357 10364 10375 10387 10396 10405 10418 10428 10432 10439 10454 10468 10479 10492 10505 10510 10513 10536 10562 10567 10568 10578 10587 10588 10587 10599 10615 10618 10617 10623 10629 10634 10638 10641 10643 10649 10661 10666 10665 10665 10667 10669 10675 10677 10679 10683 10685 10687 10689 10690 10691 10692 10694 10695 10695 10697 10699 10700 10700 10700 10701 10702 10702 10702 10701 10701 10701 10700 10700 10699 10699 10698 10698 10698 10698 10697 10696 10696 10694
10318 10322 10327 10331 10336 10341 10346 10353 10360 10370 10380 10393 10405 10415 10419 10424 10435 10449 10462 10473 10485 10496 10503 10515 10539 10554 10557 10564 10575 10585 10587 10585 10596 10613 10614 10613 10620 10626 10629 10632 10635 10638 10646 10658 10663 10661 10662 10663 10666 10671 10672 10675 10679 10680 10682 10683 10685 10686 10688 10691 10692 10691 10692 10694 10694 10694 10695 10696 10696 10697 10697 10696 10696 10696 10695 10695 10694 10694 10694 10693 10693 10693 10691 10690 10690 10689
10316 10320 10325 10330 10334 10338 10344 10351 10359 10369 10381 10392 10398 10402 10409 10421 10435 10447 10460 10472 10482 10492 10504 10520 10536 10545 10553 10564 10573 10582 10584 10579 10590 10608 10610 10610 10616 10621 10624 10628 10631 10634 10643 10656 10660 10658 10657 10657 10661 10666 10668 10672 10675 10675 10677 10679 10680 10683 10685 10687 10688 10687 10688 10689 10689 10689 10690 10691 10691 10691 10692 10691 10691 10691 10690 10690 10689 10689 10689 10688 10688 10688 10686 10685 10685 10684
10315 10320 10323 10327 10332 10338 10345 10354 10362 10372 10381 10388 10392 10397 10406 10418 10430 10443 10457 10469 10480 10490 10502 10517 10530 10540 10552 10562 10568 10577 10578 10573 10585 10602 10605 10606 10610 10614 10619 10623 10626 10630 10640 10652 10656 10653 10652 10653 10657 10661 10664 10668 10670 10670 10672 10674 10676 10679 10681 10683 10684 10684 10684 10683 10684 10684 10685 10686 10686 10687 10687 10687 10687 10686 10686 10685 10684 10684 10684 10683 10683 10683 10682 10681 10680 10679
10315 10319 10323 10328 10334 10341 10349 10356 10362 10370 10378 10384 10392 10402 10413 10422 10428 10437 10449 10463 10475 10484 10497 10512 10524 10536 10549 10555 10561 10571 10572 10569 10581 10596 10599 10600 10604 10608 10613 10618 10621 10627 10636 10646 10649 10648 10647 10649 10653 10657 10661 10664 10664 10665 10668 10670 10672 10674 10676 10679 10680 10680 10679 10679 10680 10681 10681 10682 10682 10682 10682 10682 10682 10681 10681 10680 10680 10680 10679 10679 10679 10678 10677 10676 10675 10674
10315 10319 10323 10328 10334 10341 10349 10354 10360 10368 10376 10384 10393 10403 10413 10421 10428 10437 10449 10462 10472 10482 10496 10508 10518 10531 10541 10547 10555 10565 10566 10566 10577 10591 10594 10594 10598 10603 10609 10613 10617 10624 10630 10638 10643 10643 10644 10647 10648 10653 10658 10660 10660 10662 10664 10666 10667 10669 10671 10674 10676 10676 10675 10675 10677 10677 10677 10678 10678 10678 10678 10678 10677 10677 10676 10675 10675 10675 10675 10674 10674 10674 10673 10671 10670 10669
10317 10320 10323 10327 10332 10338 10345 10350 10357 10366 10373 10382 10392 10401 10409 10419 10431 10442 10453 10464 10475 10485 10496 10505 10514 10525 10532 10539 10549 10557 10559 10562 10573 10584 10588 10589 10592 10599 10605 10608 10612 10619 10625 10632 10639 10640 10642 10644 10645 10649 10654 10656 10657 10657 10659 10661 10663 10664 10667 10669 10671 10672 10671 10672 10673 10673 10673 10675 10674 10673 10673 10673 10673 10672 10672 10671 10671 10671 10670 10670 10670 10669 10668 10666 10665 10664
10319 10322 10324 10327 10331 10337 10342 10346 10353 10362 10370 10380 10390 10399 10409 10420 10433 10444 10451 10460 10472 10482 10493 10504 10515 10524 10529 10534 10543 10549 10554 10560 10569 10578 10583 10585 10587 10593 10600 10603 10608 10616 10622 10628 10635 10638 10640 10642 10642 10645 10649 10651 10652 10653 10654 10656 10658 10660 10662 10664 10666 10667 10667 10668 10669 10668 10669 10670 10670 10669 10669 10669 10668 10668 10667 10667 10667 10666 10666 10665 10665 10664 10663 10662 10661 10660
10322 10324 10327 10330 10335 10340 10345 10350 10357 10365 10373 10382 10391 10401 10411 10420 10430 10439 10446 10456 10467 10477 10488 10499 10509 10519 10527 10532 10538 10544 10550 10557 10564 10571 10576 10578 10580 10587 10595 10600 10605 10612 10619 10624 10629 10633 10637 10639 10638 10639 10642 10644 10647 10648 10649 10651 10654 10656 10658 10659 10661 10662 10662 10663 10664 10663 10664 10665 10665 10665 10665 10664 10664 10663 10662 10662 10662 10662 10661 10661 10660 10660 10658 10657 10657 10656
10325 10328 10331 10335 10340 10345 10349 10354 10362 10370 10377 10385 10393 10403 10412 10417 10423 10432 10442 10453 10466 10476 10484 10492 10501 10512 10520 10526 10532 10539 10546 10552 10559 10565 10569 10571 10577 10584 10592 10596 10601 10609 10615 10620 10625 10629 10632 10634 10634 10634 10636 10639 10642 10643 10644 10647 10649 10652 10653 10655 10656 10656 10657 10658 10658 10658 10658 10660 10661 10660 10660 10660 10659 10658 10657 10657 10658 10657 10657 10656 10656 10655 10654 10653 10652 10652
10327 10331 10334 10338 10343 10347 10351 10356 10363 10370 10377 10385 10394 10403 10410 10415 10421 10428 10438 10451 10463 10472 10481 10490 10499 10510 10517 10521 10528 10535 10542 10548 10554 10558 10562 10568 10576 10582 10587 10592 10599 10607 10612 10617 10621 10625 10629 10629 10628 10629 10631 10634 10637 10638 10640 10643 10646 10647 10648 10650 10652 10652 10652 10653 10654 10653 10653 10655 10656 10655 10656 10655 10654 10653 10652 10652 10653 10652 10651 10651 10650 10649 10649 10648 10648 10648
10330 10333 10337 10341 10345 10349 10354 10361 10366 10371 10377 10385 10393 10400 10407 10415 10422 10427 10437 10450 10461 10470 10479 10486 10496 10507 10513 10517 10524 10531 10538 10544 10550 10554 10560 10568 10575 10580 10585 10592 10599 10605 10609 10613 10618 10621 10624 10624 10624 10626 10628 10630 10632 10633 10635 10638 10641 10643 10644 10646 10647 10647 10647 10649 10650 10649 10649 10650 10650 10650 10651 10650 10649 10648 10647 10647 10648 10647 10646 10645 10645 10645 10645 10645 10644 10643
10333 10336 10340 10345 10349 10353 10357 10363 10369 10374 10381 10388 10394 10399 10405 10414 10423 10430 10438 10448 10458 10467 10473 10479 10490 10503 10509 10514 10521 10528 10535 10543 10549 10553 10558 10565 10572 10577 10584 10591 10597 10601 10605 10609 10613 10616 10617 10618 10619 10622 10624 10626 10627 10628 10630 10634 10637 10638 10639 10641 10642 10642 10642 10644 10645 10644 10644 10645 10645 10645 10645 10645 10644 10644 10643 10643 10642 10641 10640 10640 10641 10641 10641 10640 10639 10638
10335 10338 10342 10347 10351 10355 10359 10364 10371 10377 10384 10389 10394 10400 10405 10412 10422 10432 10438 10444 10453 10464 10470 10475 10486 10497 10504 10512 10519 10525 10532 10540 10545 10549 10554 10561 10569 10575 10582 10588 10593 10598 10602 10605 10608 10610 10612 10613 10615 10618 10620 10620 10622 10623 10625 10629 10631 10633 10634 10636 10637 10638 10638 10639 10640 10639 10639 10639 10640 10639 10640 10640 10639 10639 10638 10638 10637 10636 10636 10637 10637 10637 10636 10635 10634 10633
10339 10342 10346 10350 10354 10358 10363 10368 10373 10380 10387 10393 10397 10402 10407 10412 10421 10430 10437 10444 10453 10461 10465 10473 10485 10494 10501 10508 10514 10521 10528 10534 10540 10546 10551 10559 10566 10572 10579 10585 10589 10594 10598 10601 10603 10606 10607 10609 10611 10613 10614 10616 10619 10620 10621 10623 10626 10628 10630 10631 10633 10633 10633 10635 10634 10633 10633 10634 10634 10634 10634 10635 10635 10634 10633 10632 10631 10632 10633 10634 10633 10631 10630 10630 10629 10628
10344 10347 10350 10354 10358 10362 10368 10373 10377 10383 10390 10396 10402 10406 10411 10416 10422 10430 10440 10449 10456 10460 10465 10475 10486 10491 10496 10503 10510 10518 10525 10531 10537 10544 10549 10556 10563 10568 10575 10581 10584 10588 10593 10596 10599 10601 10602 10604 10605 10607 10610 10613 10616 10616 10616 10618 10621 10623 10625 10627 10628 10628 10628 10630 10629 10628 10627 10629 10629 10629 10630 10630 10630 10629 10628 10627 10628 10629 10629 10629 10627 10626 10625 10625 10624 10623
10349 10351 10355 10359 10362 10365 10370 10374 10378 10384 10390 10396 10402 10408 10414 10419 10424 10432 10441 10450 10457 10464 10470 10475 10480 10485 10495 10504 10510 10515 10521 10527 10534 10540 10546 10554 10561 10566 10572 10577 10581 10585 10589 10592 10594 10596 10598 10599 10601 10603 10607 10610 10611 10611 10612 10614 10616 10618 10621 10622 10623 10623 10624 10625 10624 10623 10622 10623 10624 10625 10625 10625 10625 10624 10623 10623 10624 10624 10624 10623 10622 10620 10620 10619 10619 10618
10354 10356 10359 10362 10365 10368 10372 10375 10378 10384 10390 10396 10401 10406 10413 10418 10424 10431 10439 10447 10457 10466 10472 10476 10482 10490 10498 10502 10505 10512 10521 10528 10533 10537 10544 10551 10558 10563 10568 10573 10578 10583 10586 10587 10589 10591 10593 10595 10597 10599 10603 10605 10606 10606 10607 10609 10611 10614 10616 10617 10618 10619 10619 10620 10619 10618 10617 10618 10619 10620 10621 10621 10620 10620 10620 10620 10620 10619 10618 10617 10616 10615 10615 10614 10614 10614
10359 10361 10363 10365 10368 10370 10373 10377 10381 10385 10390 10396 10401 10407 10412 10418 10424 10430 10437 10447 10456 10463 10470 10477 10484 10492 10496 10499 10506 10516 10524 10528 10532 10536 10542 10549 10555 10560 10565 10570 10574 10578 10581 10583 10585 10587 10589 10590 10592 10595 10598 10599 10600 10601 10602 10604 10608 10610 10611 10613 10613 10614 10615 10615 10614 10613 10613 10614 10614 10615 10617 10616 10615 10615 10615 10615 10615 10614 10613 10612 10611 10610 10610 10610 10610 10609
10362 10364 10366 10368 10370 10373 10376 10380 10384 10387 10391 10395 10401 10407 10412 10419 10426 10433 10440 10448 10455 10460 10466 10471 10476 10483 10490 10497 10505 10513 10518 10523 10528 10534 10540 10547 10553 10558 10563 10567 10570 10573 10576 10579 10581 10582 10583 10586 10589 10591 10592 10593 10594 10595 10598 10601 10603 10605 10606 10608 10608 10609 10610 10610 10609 10609 10609 10609 10609 10610 10612 10612 10611 10610 10610 10610 10610 10609 10608 10607 10606 10605 10605 10605 10605 10604
10364 10367 10369 10371 10373 10376 10379 10383 10386 10389 10393 10397 10402 10408 10415 10421 10428 10434 10441 10448 10454 10460 10463 10465 10470 10478 10485 10492 10500 10507 10513 10519 10525 10531 10538 10545 10550 10555 10559 10563 10566 10569 10571 10573 10574 10576 10578 10581 10584 10585 10586 10587 10589 10591 10594 10597 10598 10600 10602 10603 10604 10604 10604 10605 10605 10605 10605 10605 10605 10606 10606 10607 10606 10605 10605 10605 10604 10604 10603 10602 10601 10600 10600 10600 10599 10598
10367 10369 10371 10374 10376 10379 10382 10385 10388 10392 10397 10401 10405 10410 10417 10423 10428 10434 10442 10448 10453 10457 10459 10460 10468 10477 10484 10490 10498 10505 10511 10516 10523 10530 10536 10541 10548 10553 10556 10559 10562 10565 10566 10568 10569 10571 10574 10577 10578 10579 10580 10582 10585 10588 10590 10592 10594 10595 10597 10599 10599 10599 10599 10599 10600 10601 10601 10601 10601 10601 10601 10601 10601 10600 10600 10600 10600 10599 10598 10597 10597 10596 10595 10594 10593 10593
10369 10371 10374 10376 10379 10382 10385 10387 10390 10394 10399 10404 10408 10413 10418 10423 10429 10435 10442 10447 10451 10454 10457 10461 10471 10480 10485 10492 10500 10505 10510 10517 10525 10531 10534 10539 10546 10551 10552 10554 10558 10560 10561 10563 10564 10566 10568 10571 10572 10573 10576 10579 10582 10584 10586 10587 10589 10591 10592 10593 10593 10593 10594 10595 10596 10597 10597 10596 10596 10596 10596 10595 10595 10595 10595 10595 10594 10594 10593 10592 10592 10591 10590 10589 10588 10588
10372 10374 10376 10379 10382 10385 10388 10390 10393 10397 10401 10406 10411 10416 10420 10425 10431 10438 10444 10448 10452 10456 10459 10466 10475 10483 10488 10495 10501 10505 10510 10517 10524 10527 10530 10536 10541 10544 10546 10550 10553 10556 10558 10559 10560 10560 10562 10564 10566 10569 10573 10577 10579 10580 10582 10583 10585 10586 10587 10587 10588 10589 10590 10590 10591 10591 10591 10591 10591 10591 10591 10590 10589 10589 10589 10589 10589 10588 10587 10586 10586 10585 10584 10583 10583 10583
10374 10377 10379 10381 10384 10388 10391 10393 10397 10401 10405 10410 10414 10419 10423 10428 10434 10440 10445 10449 10453 10457 10461 10469 10477 10484 10489 10494 10499 10504 10510 10516 10519 10521 10525 10530 10534 10538 10542 10547 10550 10552 10554 10556 10556 10556 10557 10560 10563 10567 10571 10573 10574 10575 10577 10579 10581 10582 10582 10582 10583 10584 10585 10586 10586 10586 10586 10586 10586 10585 10584 10584 10584 10584 10584 10583 10582 10582 10581 10580 10580 10579 10578 10578 10578 10578
10376 10379 10381 10383 10386 10389 10393 10397 10401 10405 10409 10414 10418 10422 10426 10431 10436 10442 10446 10450 10454 10458 10464 10471 10477 10483 10488 10492 10498 10504 10508 10511 10513 10517 10522 10526 10529 10533 10538 10542 10546 10549 10550 10551 10552 10553 10554 10556 10560 10564 10567 10568 10570 10571 10573 10575 10576 10577 10577 10577 10578 10579 10580 10581 10580 10581 10581 10581 10581 10580 10579 10578 10578 10578 10578 10577 10577 10576 10575 10574 10574 10573 10572 10572 10572 10571
10377 10380 10383 10386 10389 10391 10395 10399 10403 10407 10412 10416 10421 10426 10429 10432 10436 10441 10445 10450 10454 10459 10466 10472 10478 10483 10487 10492 10497 10501 10504 10506 10510 10515 10519 10522 10525 10529 10534 10538 10542 10544 10544 10546 10548 10550 10551 10554 10557 10559 10561 10563 10565 10566 10568 10569 10570 10571 10572 10573 10574 10575 10575 10575 10575 10576 10576 10575 10575 10575 10574 10573 10573 10573 10573 10572 10571 10570 10569 10568 10567 10567 10567 10566 10566 10565
10377 10381 10384 10388 10391 10393 10396 10400 10404 10408 10413 10418 10423 10427 10430 10433 10437 10441 10445 10449 10454 10460 10467 10473 10478 10484 10489 10493 10497 10499 10501 10505 10509 10513 10515 10519 10522 10525 10530 10533 10535 10536 10538 10540 10543 10545 10548 10550 10552 10553 10555 10557 10559 10560 10562 10563 10565 10566 10567 10568 10568 10569 10569 10570 10570 10570 10570 10569 10569 10569 10569 10568 10567 10567 10566 10566 10565 10564 10563 10562 10561 10561 10561 10560 10560 10559
10377 10380 10383 10387 10391 10395 10398 10402 10406 10410 10414 10419 10423 10426 10430 10435 10439 10443 10445 10449 10454 10460 10466 10472 10478 10485 10491 10494 10495 10496 10499 10503 10507 10510 10513 10516 10518 10522 10526 10528 10529 10530 10532 10535 10537 10540 10543 10544 10545 10547 10549 10550 10552 10554 10556 10558 10559 10561 10562 10562 10563 10563 10564 10564 10564 10564 10564 10564 10564 10563 10563 10562 10561 10561 10560 10560 10559 10558 10557 10556 10556 10556 10555 10554 10554 10553
10376 10379 10382 10385 10390 10395 10399 10403 10407 10412 10416 10420 10423 10426 10430 10435 10439 10442 10444 10448 10453 10459 10465 10471 10477 10484 10490 10491 10489 10492 10497 10502 10506 10509 10511 10513 10515 10519 10522 10524 10525 10526 10527 10529 10531 10534 10536 10538 10539 10541 10542 10544 10546 10549 10550 10552 10554 10555 10555 10556 10556 10557 10558 10558 10558 10558 10558 10558 10558 10558 10558 10557 10556 10555 10554 10553 10553 10552 10551 10550 10550 10550 10549 10548 10548 10547
10375 10378 10381 10384 10388 10393 10397 10401 10406 10412 10417 10420 10423 10425 10428 10430 10434 10438 10442 10447 10453 10458 10464 10469 10473 10479 10485 10486 10486 10491 10498 10504 10507 10508 10509 10511 10515 10518 10520 10521 10522 10522 10522 10523 10525 10528 10530 10532 10533 10535 10537 10539 10541 10543 10545 10546 10548 10549 10549 10549 10550 10551 10552 10552 10553 10553 10553 10553 10553 10553 10552 10551 10550 10549 10548 10547 10546 10545 10544 10544 10544 10545 10543 10542 10541 10541
10374 10377 10381 10383 10386 10390 10395 10399 10404 10409 10413 10416 10419 10422 10424 10426 10429 10434 10439 10446 10452 10457 10462 10466 10469 10474 10479 10482 10485 10492 10501 10508 10510 10510 10510 10514 10518 10521 10522 10519 10517 10517 10517 10517 10519 10523 10525 10526 10528 10529 10531 10534 10536 10538 10540 10541 10542 10542 10543 10543 10544 10545 10546 10546 10547 10547 10547 10547 10547 10547 10546 10545 10545 10543 10542 10541 10541 10540 10539 10538 10539 10539 10537 10535 10535 10534
10375 10377 10379 10381 10385 10389 10393 10398 10403 10408 10411 10414 10416 10419 10422 10424 10427 10431 10437 10444 10450 10454 10459 10462 10466 10469 10473 10477 10483 10491 10499 10507 10511 10511 10512 10516 10519 10523 10524 10519 10513 10512 10511 10511 10513 10518 10519 10520 10521 10523 10526 10528 10530 10532 10534 10535 10536 10536 10537 10537 10538 10539 10539 10540 10541 10541 10541 10541 10541 10541 10540 10540 10539 10538 10536 10536 10535 10534 10533 10533 10533 10532 10531 10529 10529 10528
10373 10375 10377 10380 10383 10386 10390 10395 10400 10405 10408 10411 10414 10417 10420 10423 10426 10430 10434 10440 10445 10450 10453 10457 10460 10463 10467 10472 10479 10485 10492 10500 10504 10506 10509 10513 10515 10518 10522 10521 10514 10507 10504 10503 10506 10511 10513 10513 10514 10516 10519 10522 10524 10527 10528 10529 10530 10530 10531 10532 10532 10533 10534 10534 10534 10535 10535 10535 10535 10535 10534 10533 10533 10532 10531 10529 10529 10529 10527 10527 10527 10526 10524 10523 10522 10522